Regional Weather Roundup
Issued by NWS Sterling, VA

Home | Current Version | Previous Version | Graphics & Text | Print | Product List | Glossary On
Versions: 1 2 3 4 5 6 7 8 9 10 11 12 13 14 15 16 17 18 19 20 21 22 23 24 25 26 27 28 29 30 31 32 33 34 35 36 37 38 39 40 41 42 43 44 45 46 47 48 49 50
000
ASUS41 KLWX 271611
RWRLWX

REGIONAL WEATHER ROUNDUP
NATIONAL WEATHER SERVICE BALTIMORE MD/WASHINGTON DC
1100 AM EST MON FEB 27 2017

Note: "FAIR" indicates few or no clouds below 12,000 feet
with no significant weather and/or obstructions to visibility.
 TC=TEMPERATURE CELSIUS

 * =Non NWS site. Station does not report precipitation (e.g. rain,
    snow, etc.), thunder, or fog.

DCZ001-MDZ009-015-VAZ040>042-051-053>054-271700-
WASHINGTON METRO

CITY           SKY/WX    TMP DP  RH WIND       PRES   REMARKS
WASHINGTON NAT CLOUDY    48  33  56 S9        30.45R
DULLES         CLOUDY    46  24  42 S7        30.43R
ANDREWS AFB    CLOUDY    51  24  34 SW9       30.42S
FT BELVOIR     PTSUNNY   49  24  38 S8        30.44R
QUANTICO       CLOUDY    46  34  62 S9        30.46R
COLLEGE PARK*  CLOUDY    46  28  49 S3        30.43S
LEESBURG*      CLOUDY    45  32  61 MISG      30.43S
MANASSAS*      MOSUNNY   48  26  42 SW3       30.44R
GAITHERSBURG*  CLOUDY    46  21  36 SW9       30.46R

$$

MDZ006>007-011-014-271700-
BALTIMORE METRO

CITY           SKY/WX    TMP DP  RH WIND       PRES   REMARKS
BWI AIRPORT    CLOUDY    47  30  51 SW6       30.43F
MD SCIENCE CTR   N/A     48  34  58 MISG      30.47S
MARTIN STATE   PTSUNNY   48  37  66 SW5       30.46S
ANNAPOLIS      MOSUNNY   47  40  76 SE9       30.44S
FORT MEADE*    CLOUDY    46  32  57 CALM      30.46S

$$

MDZ012-015-019>023-271700-
MARYLAND EASTERN SHORE

CITY           SKY/WX    TMP DP  RH WIND       PRES   REMARKS
OCEAN CITY     MOSUNNY   50  38  63 VRB7      30.47F
SALISBURY      PTSUNNY   54  33  45 SW9       30.46F
BAY BRIDGE AP* PTSUNNY   52  37  58 S8        30.44S
CAMBRIDGE*     MOSUNNY   54  36  50 S10       30.45S
EASTON*        PTSUNNY   54  36  50 SW6       30.48F

$$

MDZ017>025-271700-
SOUTHERN MARYLAND

CITY           SKY/WX    TMP DP  RH WIND       PRES   REMARKS
PATUXENT RIVER CLOUDY    51  34  52 SW10      30.46R
ST INIGOES     CLOUDY    49  38  65 SW7       30.46R
LEONARDTOWN*   CLOUDY    50  28  43 SW8       30.46S

$$

MDZ003>005-271700-
NORTH CENTRAL MARYLAND

CITY           SKY/WX    TMP DP  RH WIND       PRES   REMARKS
FREDERICK*     CLOUDY    45  30  57 SW6       30.44S
HAGERSTOWN APT CLOUDY    47  20  34 SW8       30.38S
WESTMINSTER*   MOSUNNY   48  23  37 SW12      30.39S

$$

MDZ501>502-271700-
WESTERN MARYLAND

CITY           SKY/WX    TMP DP  RH WIND       PRES   REMARKS
OAKLAND*       CLOUDY    37  28  70 SW8G16    30.29S
CUMBERLAND*    MOSUNNY   41  23  48 CALM      30.40F

$$

VAZ025>031-271700-
SHENANDOAH VALLEY

CITY           SKY/WX    TMP DP  RH WIND       PRES   REMARKS
WINCHESTER*    CLOUDY    46  18  31 S8        30.38F
FRONT ROYAL*   CLOUDY    46  19  34 SW6       30.38S
LURAY*         PTSUNNY   46  25  42 SW3       30.39S
NEW MARKET*    CLOUDY    46  18  33 W6        30.38S
STAUNTON*      CLOUDY    41  26  54 CALM      30.40F
WAYNESBORO*    CLOUDY    45  15  30 S3        30.38F

$$

WVZ021-048>050-054>055-271700-
EASTERN WEST VIRGINIA PANHANDLE

CITY           SKY/WX    TMP DP  RH WIND       PRES   REMARKS
MARTINSBURG    CLOUDY    46  20  35 VRB3      30.38S
PETERSBURG*    CLOUDY    45  26  45 CALM      30.36F

$$

VAZ036>039-050-271700-
CENTRAL FOOTHILLS

CITY           SKY/WX    TMP DP  RH WIND       PRES   REMARKS
CHARLOTTESVILL CLOUDY    49  21  33 S6        30.42F
CULPEPER*      CLOUDY    48  27  44 S3        30.44S
ORANGE*        CLOUDY    48  21  34 S3        30.44F
GORDONSVILLE*  CLOUDY    48  20  33 SW6       30.43S
WARRENTON*     CLOUDY    49  18  28 S6        30.42F

$$

VAZ055>057-271700-
NORTH AND CENTRAL PIEDMONT

CITY           SKY/WX    TMP DP  RH WIND       PRES   REMARKS
FREDERICKSBRG* CLOUDY    50  28  42 S10       30.44F
STAFFORD*      CLOUDY    46  27  47 CALM      30.48F

$$

NCZ024-NYZ072-PAZ021-071-VAZ022-071-271700-
OTHER REGIONAL OBSERVATIONS

CITY           SKY/WX    TMP DP  RH WIND       PRES   REMARKS
NEW YORK CITY  MOSUNNY   46  23  40 W9        30.44F
PHILADELPHIA   PTSUNNY   50  28  42 SW12      30.45S
PITTSBURGH     CLOUDY    44  20  38 SW8       30.30R
ROANOKE        CLOUDY    46  19  34 VRB3      30.41F
RICHMOND       PTSUNNY   54  29  38 S12       30.45S
RALEIGH        MOSUNNY   60  22  23 S12       30.45R

$$

ANZ530>537-271700-
MARINE OBSERVATIONS

STATION/POSITION TIME  TEMP    WIND        PRES
                       AIR SEA DIR/SP/G
                 (UTC) (F)     (DEG/KT/KT) (MB)
THOMAS PT LIGHT  1600   44 44  170/ 11/ 11   N/A
BALT KEY BRIDGE  1548   44      80/  1/  2 1030.9F
COVE POINT       1548   44     180/ 10/ 11 1031.8R
LEWISETTA        1548   49 49  240/  5/  6 1031.3R
SOLOMONS ISLAND  1548   50 45  220/  9/ 11   N/A
PINEY POINT      1548          190/  1/  2   N/A

$$




USA.gov is the U.S. government's official web portal to all federal, state and local government web resources and services.